• In Deutschland
  • Länderverzeichnis
  • Für 7 Tage
  • Wassertemperatur
  • Satellitenkarten
  • Wetterkarte
  • Widgets
  • user-avatar
    Anmelden

    Stündliche Wetter Berlin

    Heute, 24 September, Sonntag

    Zeit Temperatur Niederschläge Wind Luftdruck Luftfeuchtigkeit
    00:00 +13°C° 0,4 mm 3 m/S 762 mmHg 94%
    01:00 +13°C° 0,4 mm 3 m/S 762 mmHg 94%
    02:00 +13°C° 0,2 mm 3 m/S 762 mmHg 95%
    03:00 +14°C° 0,2 mm 2 m/S 762 mmHg 95%
    04:00 +14°C° 0,2 mm 2 m/S 762 mmHg 96%
    05:00 +14°C° 0,1 mm 2 m/S 762 mmHg 96%
    06:00 +14°C° 0,1 mm 2 m/S 762 mmHg 96%
    07:00 +14°C° 0,1 mm 2 m/S 762 mmHg 95%
    08:00 +15°C° 0 mm 2 m/S 762 mmHg 92%
    09:00 +16°C° 0 mm 2 m/S 763 mmHg 88%
    10:00 +16°C° 0 mm 2 m/S 763 mmHg 85%
    11:00 +17°C° 0,1 mm 2 m/S 763 mmHg 81%
    12:00 +18°C° 0,1 mm 3 m/S 763 mmHg 77%
    13:00 +19°C° 0,1 mm 3 m/S 763 mmHg 73%
    14:00 +19°C° 0,3 mm 2 m/S 763 mmHg 73%
    15:00 +19°C° 0,3 mm 2 m/S 763 mmHg 74%
    16:00 +19°C° 0,3 mm 2 m/S 763 mmHg 75%
    17:00 +18°C° 0,3 mm 2 m/S 763 mmHg 79%
    18:00 +17°C° 0,3 mm 2 m/S 763 mmHg 83%
    19:00 +16°C° 0,3 mm 2 m/S 763 mmHg 86%
    20:00 +16°C° 0 mm 2 m/S 763 mmHg 88%
    21:00 +15°C° 0 mm 2 m/S 763 mmHg 89%
    22:00 +15°C° 0 mm 2 m/S 763 mmHg 90%
    23:00 +15°C° 0 mm 2 m/S 763 mmHg 91%

    Morgen, 25 September, Montag

    Zeit Temperatur Niederschläge Wind Luftdruck Luftfeuchtigkeit
    00:00 +14°C° 0 mm 2 m/S 763 mmHg 91%
    01:00 +14°C° 0 mm 2 m/S 763 mmHg 92%
    02:00 +14°C° 0,1 mm 2 m/S 763 mmHg 92%
    03:00 +14°C° 0,1 mm 2 m/S 762 mmHg 93%
    04:00 +13°C° 0,1 mm 2 m/S 762 mmHg 93%
    05:00 +13°C° 0,4 mm 2 m/S 762 mmHg 93%
    06:00 +14°C° 0,4 mm 2 m/S 762 mmHg 93%
    07:00 +13°C° 0,4 mm 3 m/S 762 mmHg 93%
    08:00 +13°C° 0,2 mm 3 m/S 762 mmHg 89%
    09:00 +14°C° 0,2 mm 3 m/S 762 mmHg 86%
    10:00 +14°C° 0,2 mm 3 m/S 762 mmHg 83%
    11:00 +16°C° 0,2 mm 3 m/S 762 mmHg 81%
    12:00 +16°C° 0,2 mm 3 m/S 762 mmHg 79%
    13:00 +17°C° 0,2 mm 3 m/S 762 mmHg 77%
    14:00 +17°C° 0,2 mm 3 m/S 762 mmHg 77%
    15:00 +17°C° 0,2 mm 3 m/S 762 mmHg 77%
    16:00 +17°C° 0,2 mm 3 m/S 762 mmHg 77%
    17:00 +16°C° 0,3 mm 3 m/S 762 mmHg 81%
    18:00 +16°C° 0,3 mm 3 m/S 762 mmHg 84%
    19:00 +14°C° 0,3 mm 4 m/S 762 mmHg 88%
    20:00 +14°C° 0 mm 4 m/S 763 mmHg 89%
    21:00 +13°C° 0 mm 4 m/S 763 mmHg 90%
    22:00 +13°C° 0 mm 4 m/S 763 mmHg 90%
    23:00 +13°C° 0,1 mm 3 m/S 763 mmHg 91%

    übermorgen, 26 September, Dienstag

    Zeit Temperatur Niederschläge Wind Luftdruck Luftfeuchtigkeit
    00:00 +13°C° 0,1 mm 3 m/S 763 mmHg 91%
    01:00 +13°C° 0,1 mm 3 m/S 763 mmHg 92%
    02:00 +13°C° 0,1 mm 3 m/S 763 mmHg 92%
    03:00 +13°C° 0,1 mm 3 m/S 763 mmHg 92%
    04:00 +13°C° 0,1 mm 3 m/S 763 mmHg 92%
    05:00 +13°C° 0,1 mm 3 m/S 763 mmHg 91%
    06:00 +12°C° 0,1 mm 3 m/S 763 mmHg 91%
    07:00 +12°C° 0,1 mm 3 m/S 764 mmHg 90%
    08:00 +14°C° 0 mm 3 m/S 764 mmHg 85%
    09:00 +15°C° 0 mm 4 m/S 764 mmHg 80%
    10:00 +17°C° 0 mm 4 m/S 764 mmHg 74%
    11:00 +18°C° 0 mm 4 m/S 764 mmHg 68%
    12:00 +20°C° 0 mm 4 m/S 764 mmHg 63%
    13:00 +21°C° 0 mm 4 m/S 764 mmHg 57%
    14:00 +21°C° 0 mm 3 m/S 764 mmHg 57%
    15:00 +21°C° 0 mm 3 m/S 764 mmHg 57%
    16:00 +21°C° 0 mm 3 m/S 764 mmHg 57%
    17:00 +20°C° 0 mm 3 m/S 764 mmHg 63%
    18:00 +18°C° 0 mm 2 m/S 764 mmHg 69%
    19:00 +17°C° 0 mm 2 m/S 765 mmHg 75%
    20:00 +16°C° 0 mm 2 m/S 765 mmHg 77%
    21:00 +16°C° 0 mm 2 m/S 765 mmHg 80%
    22:00 +15°C° 0 mm 2 m/S 765 mmHg 82%
    23:00 +15°C° 0 mm 2 m/S 765 mmHg 83%

    27 September, Mittwoch

    Zeit Temperatur Niederschläge Wind Luftdruck Luftfeuchtigkeit
    00:00 +15°C° 0 mm 2 m/S 765 mmHg 85%
    01:00 +14°C° 0 mm 2 m/S 765 mmHg 86%
    02:00 +14°C° 0 mm 2 m/S 766 mmHg 87%
    03:00 +14°C° 0 mm 2 m/S 766 mmHg 88%
    04:00 +13°C° 0 mm 2 m/S 766 mmHg 89%
    05:00 +14°C° 0 mm 2 m/S 766 mmHg 89%
    06:00 +14°C° 0 mm 2 m/S 766 mmHg 88%
    07:00 +14°C° 0 mm 2 m/S 766 mmHg 88%
    08:00 +16°C° 0 mm 2 m/S 767 mmHg 81%
    09:00 +17°C° 0 mm 3 m/S 767 mmHg 74%
    10:00 +19°C° 0 mm 3 m/S 767 mmHg 67%
    11:00 +20°C° 0 mm 3 m/S 767 mmHg 63%
    12:00 +22°C° 0 mm 3 m/S 767 mmHg 58%
    13:00 +24°C° 0 mm 3 m/S 766 mmHg 54%
    14:00 +24°C° 0 mm 3 m/S 766 mmHg 54%
    15:00 +22°C° 0 mm 3 m/S 766 mmHg 55%
    16:00 +22°C° 0 mm 3 m/S 766 mmHg 55%
    17:00 +21°C° 0 mm 3 m/S 766 mmHg 59%
    18:00 +19°C° 0 mm 3 m/S 766 mmHg 64%
    19:00 +17°C° 0 mm 3 m/S 767 mmHg 68%
    20:00 +16°C° 0 mm 3 m/S 767 mmHg 68%
    21:00 +16°C° 0 mm 3 m/S 767 mmHg 69%
    22:00 +14°C° 0 mm 3 m/S 767 mmHg 70%
    23:00 +13°C° 0 mm 3 m/S 767 mmHg 72%

    28 September, Donnerstag

    Zeit Temperatur Niederschläge Wind Luftdruck Luftfeuchtigkeit
    00:00 +14°C° 0 mm 2 m/S 767 mmHg 75%
    01:00 +13°C° 0 mm 2 m/S 767 mmHg 77%
    02:00 +13°C° 0 mm 2 m/S 767 mmHg 79%
    03:00 +12°C° 0 mm 2 m/S 767 mmHg 82%
    04:00 +12°C° 0 mm 2 m/S 767 mmHg 84%
    05:00 +12°C° 0 mm 2 m/S 767 mmHg 84%
    06:00 +12°C° 0 mm 2 m/S 767 mmHg 85%
    07:00 +12°C° 0 mm 2 m/S 767 mmHg 85%
    08:00 +13°C° 0 mm 3 m/S 767 mmHg 79%
    09:00 +16°C° 0 mm 3 m/S 767 mmHg 73%
    10:00 +18°C° 0 mm 3 m/S 767 mmHg 67%
    11:00 +19°C° 0 mm 3 m/S 767 mmHg 64%
    12:00 +21°C° 0 mm 3 m/S 767 mmHg 60%
    13:00 +22°C° 0 mm 3 m/S 767 mmHg 57%
    14:00 +22°C° 0 mm 3 m/S 767 mmHg 58%
    15:00 +22°C° 0 mm 3 m/S 767 mmHg 59%
    16:00 +22°C° 0 mm 3 m/S 767 mmHg 60%
    17:00 +20°C° 0 mm 3 m/S 767 mmHg 64%
    18:00 +19°C° 0 mm 3 m/S 767 mmHg 68%
    19:00 +17°C° 0 mm 3 m/S 767 mmHg 72%
    20:00 +17°C° 0 mm 3 m/S 767 mmHg 73%
    21:00 +16°C° 0 mm 3 m/S 768 mmHg 75%
    22:00 +14°C° 0 mm 3 m/S 768 mmHg 76%
    23:00 +14°C° 0 mm 3 m/S 768 mmHg 78%

    29 September, Freitag

    Zeit Temperatur Niederschläge Wind Luftdruck Luftfeuchtigkeit
    00:00 +13°C° 0 mm 3 m/S 768 mmHg 80%
    01:00 +13°C° 0 mm 3 m/S 767 mmHg 82%
    02:00 +12°C° 0 mm 3 m/S 767 mmHg 83%
    03:00 +12°C° 0 mm 3 m/S 767 mmHg 84%
    04:00 +11°C° 0 mm 3 m/S 767 mmHg 85%
    05:00 +11°C° 0 mm 3 m/S 767 mmHg 84%
    06:00 +11°C° 0 mm 3 m/S 767 mmHg 83%
    07:00 +11°C° 0 mm 3 m/S 767 mmHg 82%
    08:00 +12°C° 0 mm 3 m/S 767 mmHg 76%
    09:00 +14°C° 0 mm 3 m/S 767 mmHg 70%
    10:00 +15°C° 0 mm 4 m/S 766 mmHg 63%
    11:00 +18°C° 0 mm 4 m/S 766 mmHg 60%
    12:00 +19°C° 0 mm 4 m/S 766 mmHg 57%
    13:00 +20°C° 0 mm 4 m/S 765 mmHg 53%
    14:00 +20°C° 0 mm 4 m/S 765 mmHg 54%
    15:00 +20°C° 0 mm 4 m/S 765 mmHg 54%
    16:00 +20°C° 0 mm 4 m/S 764 mmHg 54%
    17:00 +18°C° 0 mm 4 m/S 764 mmHg 58%
    18:00 +17°C° 0 mm 4 m/S 764 mmHg 61%
    19:00 +14°C° 0 mm 4 m/S 764 mmHg 64%
    20:00 +14°C° 0 mm 4 m/S 764 mmHg 66%
    21:00 +13°C° 0 mm 4 m/S 764 mmHg 67%
    22:00 +12°C° 0 mm 4 m/S 764 mmHg 69%
    23:00 +12°C° 0 mm 3 m/S 763 mmHg 71%
    Mehr zeigen